| time (UTC) | temp F | wind direction | speed MPH | gust MPH | rain 1hr in | rain 24hr in | rain mn in | humidity % | barometer mb |
| 20260508022923 | 64 | 186 | 3.0 | 8.0 | 0.00 | 0.00 | 0.00 | 81 | 1014.1 |
| 20260508022422 | 64 | 207 | 4.0 | 8.0 | 0.00 | 0.00 | 0.00 | 80 | 1014.1 |
| 20260508021922 | 65 | 217 | 3.0 | 6.0 | 0.00 | 0.00 | 0.00 | 79 | 1014.0 |
| 20260508021421 | 66 | 210 | 3.0 | 8.0 | 0.00 | 0.00 | 0.00 | 77 | 1014.1 |
| 20260508020923 | 67 | 215 | 4.0 | 8.0 | 0.00 | 0.00 | 0.00 | 76 | 1014.0 |
| 20260508020423 | 68 | 204 | 3.0 | 6.0 | 0.00 | 0.00 | 0.00 | 74 | 1014.0 |
| 20260508015922 | 69 | 189 | 3.0 | 5.0 | 0.00 | 0.00 | 0.00 | 71 | 1014.0 |
| 20260508014921 | 71 | 213 | 4.0 | 7.0 | 0.00 | 0.00 | 0.00 | 70 | 1014.1 |
| 20260508014421 | 71 | 196 | 4.0 | 7.0 | 0.00 | 0.00 | 0.00 | 69 | 1014.1 |
| 20260508013924 | 71 | 196 | 4.0 | 7.0 | 0.00 | 0.00 | 0.00 | 69 | 1014.1 |
| 20260508013423 | 72 | 234 | 4.0 | 8.0 | 0.00 | 0.00 | 0.00 | 69 | 1014.1 |
| 20260508012922 | 72 | 192 | 5.0 | 9.0 | 0.00 | 0.00 | 0.00 | 68 | 1014.1 |
| 20260508012421 | 73 | 192 | 6.0 | 9.0 | 0.00 | 0.00 | 0.00 | 66 | 1014.1 |
| 20260508011922 | 73 | 198 | 5.0 | 8.0 | 0.00 | 0.00 | 0.00 | 66 | 1014.1 |
| 20260508010910 | 73 | 168 | 5.0 | 10.0 | 0.00 | 0.00 | 0.00 | 67 | 1014.1 |
| 20260508005906 | 74 | 214 | 5.0 | 8.0 | 0.00 | 0.00 | 0.00 | 66 | 1014.1 |
| 20260508004904 | 74 | 202 | 4.0 | 10.0 | 0.00 | 0.00 | 0.00 | 65 | 1014.1 |
| 20260508004403 | 74 | 209 | 4.0 | 10.0 | 0.00 | 0.00 | 0.00 | 66 | 1014.0 |
| 20260508003900 | 74 | 240 | 5.0 | 9.0 | 0.00 | 0.00 | 0.00 | 66 | 1013.9 |
| 20260508003401 | 75 | 231 | 5.0 | 9.0 | 0.00 | 0.00 | 0.00 | 65 | 1013.9 |
| 20260508002900 | 75 | 194 | 5.0 | 9.0 | 0.00 | 0.00 | 0.00 | 65 | 1013.9 |
| 20260508002358 | 75 | 246 | 5.0 | 8.0 | 0.00 | 0.00 | 0.00 | 65 | 1013.8 |
| 20260508001858 | 75 | 190 | 4.0 | 8.0 | 0.00 | 0.00 | 0.00 | 65 | 1013.9 |
| 20260508001357 | 74 | 202 | 4.0 | 9.0 | 0.00 | 0.00 | 0.00 | 66 | 1013.9 |
| 20260508000858 | 74 | 246 | 4.0 | 9.0 | 0.00 | 0.00 | 0.00 | 66 | 1014.0 |
| 20260508000357 | 75 | 165 | 4.0 | 7.0 | 0.00 | 0.00 | 0.00 | 65 | 1014.0 |
| 20260507235354 | 75 | 212 | 5.0 | 10.0 | 0.00 | 0.00 | 0.00 | 65 | 1014.0 |
| 20260507234854 | 75 | 225 | 4.0 | 9.0 | 0.00 | 0.00 | 0.00 | 66 | 1013.9 |
| 20260507234349 | 75 | 218 | 5.0 | 9.0 | 0.00 | 0.00 | 0.00 | 65 | 1013.9 |
| 20260507233846 | 75 | 221 | 4.0 | 8.0 | 0.00 | 0.00 | 0.00 | 65 | 1014.0 |
| 20260507233346 | 74 | 163 | 4.0 | 9.0 | 0.00 | 0.00 | 0.00 | 67 | 1013.9 |
| 20260507232846 | 74 | 207 | 4.0 | 9.0 | 0.00 | 0.00 | 0.00 | 66 | 1014.0 |
| 20260507232345 | 75 | 205 | 5.0 | 10.0 | 0.00 | 0.00 | 0.00 | 65 | 1013.8 |
| 20260507231845 | 74 | 200 | 5.0 | 11.0 | 0.00 | 0.00 | 0.00 | 66 | 1013.9 |
| 20260507230846 | 75 | 159 | 6.0 | 10.0 | 0.00 | 0.00 | 0.00 | 65 | 1013.9 |
| 20260507230346 | 75 | 209 | 6.0 | 13.0 | 0.00 | 0.00 | 0.00 | 65 | 1014.1 |
| 20260507225846 | 75 | 157 | 5.0 | 13.0 | 0.00 | 0.00 | 0.00 | 64 | 1014.0 |
| 20260507225346 | 75 | 248 | 5.0 | 10.0 | 0.00 | 0.00 | 0.00 | 64 | 1014.0 |
| 20260507224845 | 75 | 169 | 5.0 | 10.0 | 0.00 | 0.00 | 0.00 | 65 | 1014.0 |
| 20260507224341 | 75 | 206 | 5.0 | 11.0 | 0.00 | 0.00 | 0.00 | 64 | 1014.0 |
| 20260507223841 | 75 | 140 | 5.0 | 11.0 | 0.00 | 0.00 | 0.00 | 64 | 1014.1 |
| 20260507223341 | 76 | 221 | 4.0 | 12.0 | 0.00 | 0.00 | 0.00 | 64 | 1014.1 |
| 20260507222841 | 76 | 147 | 4.0 | 12.0 | 0.00 | 0.00 | 0.00 | 64 | 1014.1 |
| 20260507222341 | 76 | 163 | 4.0 | 12.0 | 0.00 | 0.00 | 0.00 | 65 | 1014.1 |
| 20260507221842 | 76 | 212 | 5.0 | 12.0 | 0.00 | 0.00 | 0.00 | 65 | 1014.1 |
| 20260507221337 | 76 | 192 | 5.0 | 11.0 | 0.00 | 0.00 | 0.00 | 64 | 1014.1 |
| 20260507220830 | 75 | 221 | 5.0 | 9.0 | 0.00 | 0.00 | 0.00 | 66 | 1014.2 |
| 20260507220324 | 75 | 184 | 5.0 | 10.0 | 0.00 | 0.00 | 0.00 | 66 | 1014.2 |
| 20260507215818 | 75 | 186 | 5.0 | 10.0 | 0.00 | 0.00 | 0.00 | 65 | 1014.2 |
| 20260507215314 | 74 | 207 | 6.0 | 11.0 | 0.00 | 0.00 | 0.00 | 66 | 1014.5 |
| 20260507214806 | 75 | 203 | 6.0 | 12.0 | 0.00 | 0.00 | 0.00 | 66 | 1014.6 |
| 20260507214300 | 75 | 218 | 6.0 | 12.0 | 0.00 | 0.00 | 0.00 | 65 | 1014.7 |
| 20260507213754 | 75 | 172 | 6.0 | 11.0 | 0.00 | 0.00 | 0.00 | 64 | 1014.8 |
| 20260507213248 | 75 | 200 | 6.0 | 13.0 | 0.00 | 0.00 | 0.00 | 65 | 1014.8 |
| 20260507212742 | 76 | 163 | 5.0 | 13.0 | 0.00 | 0.00 | 0.00 | 64 | 1014.7 |
| 20260507212235 | 76 | 167 | 6.0 | 14.0 | 0.00 | 0.00 | 0.00 | 64 | 1014.7 |
| 20260507211730 | 75 | 178 | 7.0 | 14.0 | 0.00 | 0.00 | 0.00 | 64 | 1014.7 |
| 20260507211226 | 76 | 183 | 7.0 | 14.0 | 0.00 | 0.00 | 0.00 | 63 | 1014.7 |
| 20260507210718 | 76 | 190 | 6.0 | 14.0 | 0.00 | 0.00 | 0.00 | 64 | 1014.7 |
| 20260507210212 | 76 | 230 | 6.0 | 14.0 | 0.00 | 0.00 | 0.00 | 63 | 1014.7 |
| 20260507205705 | 76 | 206 | 6.0 | 14.0 | 0.00 | 0.00 | 0.00 | 63 | 1014.8 |
| 20260507205200 | 77 | 171 | 5.0 | 12.0 | 0.00 | 0.00 | 0.00 | 63 | 1014.8 |
| 20260507204148 | 76 | 210 | 5.0 | 13.0 | 0.00 | 0.00 | 0.00 | 64 | 1014.8 |
| 20260507203641 | 76 | 190 | 5.0 | 11.0 | 0.00 | 0.00 | 0.00 | 64 | 1014.9 |
| 20260507202629 | 75 | 189 | 6.0 | 14.0 | 0.00 | 0.00 | 0.00 | 65 | 1014.8 |
| 20260507202124 | 76 | 232 | 6.0 | 12.0 | 0.00 | 0.00 | 0.00 | 63 | 1014.8 |
| 20260507201112 | 76 | 194 | 4.0 | 12.0 | 0.00 | 0.00 | 0.00 | 64 | 1014.8 |
| 20260507200607 | 76 | 221 | 4.0 | 9.0 | 0.00 | 0.00 | 0.00 | 65 | 1014.9 |
| 20260507195048 | 76 | 232 | 5.0 | 13.0 | 0.00 | 0.00 | 0.00 | 63 | 1015.0 |
| 20260507194036 | 76 | 226 | 5.0 | 11.0 | 0.00 | 0.00 | 0.00 | 64 | 1015.2 |
| 20260507193531 | 75 | 244 | 5.0 | 10.0 | 0.00 | 0.00 | 0.00 | 63 | 1015.2 |
| 20260507192518 | 76 | 236 | 4.0 | 10.0 | 0.00 | 0.00 | 0.00 | 65 | 1015.3 |
| 20260507192012 | 75 | 238 | 5.0 | 12.0 | 0.00 | 0.00 | 0.00 | 64 | 1015.3 |
| 20260507191507 | 75 | 192 | 5.0 | 12.0 | 0.00 | 0.00 | 0.00 | 64 | 1015.4 |
| 20260507191000 | 75 | 271 | 4.0 | 10.0 | 0.00 | 0.00 | 0.00 | 63 | 1015.4 |
| 20260507190454 | 75 | 232 | 4.0 | 11.0 | 0.00 | 0.00 | 0.00 | 65 | 1015.4 |
| 20260507185948 | 75 | 248 | 4.0 | 11.0 | 0.00 | 0.00 | 0.00 | 63 | 1015.5 |
| 20260507185442 | 75 | 243 | 4.0 | 12.0 | 0.00 | 0.00 | 0.00 | 65 | 1015.5 |
| 20260507184936 | 75 | 186 | 3.0 | 12.0 | 0.00 | 0.00 | 0.00 | 65 | 1015.6 |
| 20260507184430 | 74 | 267 | 3.0 | 9.0 | 0.00 | 0.00 | 0.00 | 64 | 1015.6 |
| 20260507183924 | 74 | 217 | 4.0 | 10.0 | 0.00 | 0.00 | 0.00 | 65 | 1015.7 |
| 20260507182912 | 74 | 211 | 5.0 | 10.0 | 0.00 | 0.00 | 0.00 | 65 | 1015.7 |
| 20260507182407 | 74 | 267 | 3.0 | 8.0 | 0.00 | 0.00 | 0.00 | 66 | 1015.7 |
| 20260507181900 | 73 | 170 | 3.0 | 11.0 | 0.00 | 0.00 | 0.00 | 67 | 1015.7 |
| 20260507181354 | 73 | 225 | 4.0 | 11.0 | 0.00 | 0.00 | 0.00 | 67 | 1015.7 |
| 20260507180848 | 72 | 220 | 3.0 | 9.0 | 0.00 | 0.00 | 0.00 | 67 | 1015.8 |
| 20260507180342 | 73 | 219 | 2.0 | 6.0 | 0.00 | 0.00 | 0.00 | 67 | 1015.7 |
| 20260507175836 | 72 | 176 | 3.0 | 10.0 | 0.00 | 0.00 | 0.00 | 69 | 1015.8 |
| 20260507175330 | 71 | 227 | 4.0 | 10.0 | 0.00 | 0.00 | 0.00 | 69 | 1015.9 |
| 20260507174825 | 71 | 224 | 4.0 | 9.0 | 0.00 | 0.00 | 0.00 | 69 | 1016.0 |
| 20260507174318 | 71 | 223 | 3.0 | 9.0 | 0.00 | 0.00 | 0.00 | 69 | 1016.0 |
| 20260507173812 | 70 | 240 | 3.0 | 6.0 | 0.00 | 0.00 | 0.00 | 69 | 1016.0 |
| 20260507172800 | 69 | 242 | 1.0 | 8.0 | 0.00 | 0.00 | 0.00 | 70 | 1016.1 |
| 20260507172254 | 69 | 232 | 1.0 | 4.0 | 0.00 | 0.00 | 0.00 | 70 | 1016.1 |
| 20260507171748 | 68 | 232 | 1.0 | 3.0 | 0.00 | 0.00 | 0.00 | 71 | 1016.1 |
| 20260507170735 | 67 | 224 | 1.0 | 5.0 | 0.00 | 0.00 | 0.00 | 72 | 1016.1 |
| 20260507170230 | 67 | 224 | 2.0 | 5.0 | 0.00 | 0.00 | 0.00 | 73 | 1016.1 |
| 20260507165218 | 66 | 220 | 1.0 | 5.0 | 0.00 | 0.00 | 0.00 | 74 | 1016.0 |
| 20260507164712 | 65 | 272 | 1.0 | 3.0 | 0.00 | 0.00 | 0.00 | 74 | 1015.9 |
| 20260507164206 | 65 | 270 | 1.0 | 4.0 | 0.00 | 0.00 | 0.00 | 73 | 1015.9 |
| 20260507163700 | 65 | 276 | 2.0 | 4.0 | 0.00 | 0.00 | 0.00 | 75 | 1016.1 |
| 20260507162142 | 65 | 196 | 1.0 | 4.0 | 0.00 | 0.00 | 0.00 | 75 | 1016.0 |
| 20260507161636 | 64 | 195 | 1.0 | 4.0 | 0.00 | 0.00 | 0.00 | 77 | 1016.1 |
| 20260507161131 | 64 | 208 | 2.0 | 6.0 | 0.00 | 0.00 | 0.00 | 76 | 1016.0 |
| 20260507160624 | 64 | 186 | 2.0 | 6.0 | 0.00 | 0.00 | 0.00 | 78 | 1016.1 |
| 20260507160119 | 64 | 168 | 2.0 | 5.0 | 0.00 | 0.00 | 0.00 | 78 | 1016.0 |
| 20260507155615 | 64 | 184 | 1.0 | 5.0 | 0.00 | 0.00 | 0.00 | 79 | 1016.0 |
| 20260507154117 | 62 | 200 | 0.0 | 3.0 | 0.00 | 0.00 | 0.00 | 82 | 1016.3 |
| 20260507153615 | 62 | 244 | 0.0 | 0.0 | 0.00 | 0.00 | 0.00 | 81 | 1016.3 |
| 20260507153116 | 62 | 244 | 0.0 | 0.0 | 0.00 | 0.00 | 0.00 | 81 | 1016.3 |
| 20260507152613 | 62 | 243 | 0.0 | 0.0 | 0.00 | 0.00 | 0.00 | 80 | 1016.4 |
| 20260507152114 | 62 | 243 | 0.0 | 0.0 | 0.00 | 0.00 | 0.00 | 80 | 1016.4 |
| 20260507151614 | 62 | 243 | 0.0 | 2.0 | 0.00 | 0.00 | 0.00 | 80 | 1016.3 |
| 20260507151113 | 62 | 243 | 0.0 | 2.0 | 0.00 | 0.00 | 0.00 | 79 | 1016.4 |
| 20260507150614 | 63 | 242 | 0.0 | 2.0 | 0.00 | 0.00 | 0.00 | 77 | 1016.4 |
| 20260507150110 | 64 | 242 | 1.0 | 3.0 | 0.00 | 0.00 | 0.00 | 76 | 1016.4 |
| 20260507145113 | 66 | 194 | 0.0 | 0.0 | 0.00 | 0.00 | 0.00 | 73 | 1016.3 |
| 20260507144610 | 65 | 205 | 0.0 | 2.0 | 0.00 | 0.00 | 0.00 | 76 | 1016.2 |
| 20260507144110 | 64 | 205 | 0.0 | 2.0 | 0.00 | 0.00 | 0.00 | 79 | 1016.1 |
| 20260507143110 | 61 | 207 | 0.0 | 2.0 | 0.00 | 0.00 | 0.00 | 84 | 1016.1 |
| 20260507142608 | 59 | 207 | 0.0 | 2.0 | 0.00 | 0.00 | 0.00 | 87 | 1016.1 |
| 20260507141108 | 57 | 205 | 0.0 | 0.0 | 0.00 | 0.00 | 0.00 | 88 | 1015.8 |
| 20260507140107 | 57 | 205 | 0.0 | 0.0 | 0.00 | 0.00 | 0.00 | 89 | 1015.8 |
| 20260507135608 | 56 | 205 | 0.0 | 0.0 | 0.00 | 0.00 | 0.00 | 90 | 1015.7 |
| 20260507135107 | 56 | 205 | 0.0 | 0.0 | 0.00 | 0.00 | 0.00 | 91 | 1015.7 |
| 20260507134606 | 55 | 205 | 0.0 | 0.0 | 0.00 | 0.00 | 0.00 | 91 | 1015.7 |
| 20260507133606 | 55 | 205 | 0.0 | 2.0 | 0.00 | 0.00 | 0.00 | 91 | 1015.5 |
| 20260507133108 | 55 | 290 | 0.0 | 2.0 | 0.00 | 0.00 | 0.00 | 90 | 1015.4 |
| 20260507132603 | 55 | 283 | 0.0 | 2.0 | 0.00 | 0.00 | 0.00 | 91 | 1015.3 |
| 20260507132104 | 54 | 283 | 0.0 | 3.0 | 0.00 | 0.00 | 0.00 | 91 | 1015.3 |
| 20260507131604 | 54 | 283 | 0.0 | 3.0 | 0.00 | 0.00 | 0.00 | 91 | 1015.3 |
| 20260507131104 | 54 | 283 | 0.0 | 0.0 | 0.00 | 0.00 | 0.00 | 91 | 1015.4 |
| 20260507125601 | 54 | 336 | 0.0 | 0.0 | 0.00 | 0.00 | 0.00 | 91 | 1015.5 |
| 20260507125100 | 54 | 336 | 0.0 | 0.0 | 0.00 | 0.00 | 0.00 | 92 | 1015.4 |
| 20260507124059 | 54 | 336 | 0.0 | 0.0 | 0.00 | 0.00 | 0.00 | 91 | 1015.3 |
| 20260507123557 | 54 | 336 | 0.0 | 0.0 | 0.00 | 0.00 | 0.00 | 91 | 1015.3 |
| 20260507123057 | 55 | 336 | 0.0 | 0.0 | 0.00 | 0.00 | 0.00 | 91 | 1015.2 |
| 20260507122556 | 55 | 336 | 0.0 | 0.0 | 0.00 | 0.00 | 0.00 | 91 | 1015.2 |
| 20260507122059 | 55 | 336 | 0.0 | 0.0 | 0.00 | 0.00 | 0.00 | 91 | 1015.2 |
| 20260507121557 | 55 | 336 | 0.0 | 0.0 | 0.00 | 0.00 | 0.00 | 91 | 1015.1 |
| 20260507121056 | 55 | 336 | 0.0 | 0.0 | 0.00 | 0.00 | 0.00 | 91 | 1015.1 |
| 20260507120557 | 55 | 327 | 0.0 | 0.0 | 0.00 | 0.00 | 0.00 | 91 | 1015.2 |
| 20260507120056 | 55 | 300 | 0.0 | 0.0 | 0.00 | 0.00 | 0.00 | 91 | 1015.3 |
| 20260507115549 | 55 | 300 | 0.0 | 0.0 | 0.00 | 0.00 | 0.00 | 90 | 1015.2 |
| 20260507115048 | 55 | 300 | 0.0 | 0.0 | 0.00 | 0.00 | 0.00 | 90 | 1015.3 |
| 20260507114544 | 55 | 300 | 0.0 | 0.0 | 0.00 | 0.00 | 0.00 | 91 | 1015.3 |
| 20260507114044 | 55 | 300 | 0.0 | 0.0 | 0.00 | 0.00 | 0.00 | 90 | 1015.3 |
| 20260507113544 | 55 | 300 | 0.0 | 0.0 | 0.00 | 0.00 | 0.00 | 90 | 1015.3 |
| 20260507113044 | 55 | 300 | 0.0 | 0.0 | 0.00 | 0.00 | 0.00 | 90 | 1015.3 |
| 20260507112544 | 55 | 300 | 0.0 | 0.0 | 0.00 | 0.00 | 0.00 | 90 | 1015.4 |
| 20260507112043 | 55 | 300 | 0.0 | 0.0 | 0.00 | 0.00 | 0.00 | 90 | 1015.5 |
| 20260507111044 | 55 | 300 | 0.0 | 0.0 | 0.00 | 0.00 | 0.00 | 90 | 1015.5 |
| 20260507110540 | 55 | 300 | 0.0 | 0.0 | 0.00 | 0.00 | 0.00 | 90 | 1015.5 |
| 20260507110038 | 55 | 300 | 0.0 | 0.0 | 0.00 | 0.00 | 0.00 | 90 | 1015.6 |
| 20260507105540 | 55 | 300 | 0.0 | 0.0 | 0.00 | 0.00 | 0.00 | 91 | 1015.6 |
| 20260507105040 | 55 | 300 | 0.0 | 0.0 | 0.00 | 0.00 | 0.00 | 91 | 1015.5 |
| 20260507104539 | 55 | 300 | 0.0 | 0.0 | 0.00 | 0.00 | 0.00 | 91 | 1015.6 |
| 20260507104040 | 55 | 300 | 0.0 | 0.0 | 0.00 | 0.00 | 0.00 | 91 | 1015.6 |
| 20260507103538 | 55 | 300 | 0.0 | 0.0 | 0.00 | 0.00 | 0.00 | 91 | 1015.5 |
| 20260507103039 | 55 | 300 | 0.0 | 0.0 | 0.00 | 0.00 | 0.00 | 91 | 1015.6 |
| 20260507102540 | 55 | 300 | 0.0 | 0.0 | 0.00 | 0.00 | 0.00 | 91 | 1015.6 |
| 20260507101539 | 55 | 300 | 0.0 | 0.0 | 0.00 | 0.00 | 0.00 | 91 | 1015.5 |
| 20260507101040 | 56 | 300 | 0.0 | 0.0 | 0.00 | 0.00 | 0.00 | 91 | 1015.6 |
| 20260507100540 | 56 | 300 | 0.0 | 0.0 | 0.00 | 0.00 | 0.00 | 92 | 1015.6 |
| 20260507100038 | 56 | 300 | 0.0 | 0.0 | 0.00 | 0.00 | 0.00 | 92 | 1015.6 |
| 20260507095038 | 56 | 300 | 0.0 | 0.0 | 0.00 | 0.00 | 0.00 | 92 | 1015.6 |
| 20260507094540 | 56 | 300 | 0.0 | 0.0 | 0.00 | 0.00 | 0.00 | 92 | 1015.7 |
| 20260507093540 | 56 | 300 | 0.0 | 0.0 | 0.00 | 0.00 | 0.00 | 91 | 1015.8 |
| 20260507093038 | 56 | 300 | 0.0 | 0.0 | 0.00 | 0.00 | 0.00 | 91 | 1015.9 |
| 20260507092539 | 56 | 300 | 0.0 | 0.0 | 0.00 | 0.00 | 0.00 | 91 | 1015.9 |
| 20260507091038 | 56 | 300 | 0.0 | 0.0 | 0.00 | 0.00 | 0.00 | 90 | 1016.2 |
| 20260507090540 | 56 | 300 | 0.0 | 0.0 | 0.00 | 0.00 | 0.00 | 90 | 1016.2 |
| 20260507090040 | 56 | 300 | 0.0 | 0.0 | 0.00 | 0.00 | 0.00 | 89 | 1016.3 |
| 20260507085539 | 57 | 300 | 0.0 | 0.0 | 0.00 | 0.00 | 0.00 | 89 | 1016.4 |
| 20260507085031 | 57 | 300 | 0.0 | 0.0 | 0.00 | 0.00 | 0.00 | 89 | 1016.4 |
| 20260507084525 | 57 | 300 | 0.0 | 0.0 | 0.00 | 0.00 | 0.00 | 89 | 1016.5 |
| 20260507084024 | 57 | 300 | 0.0 | 0.0 | 0.00 | 0.00 | 0.00 | 89 | 1016.5 |
| 20260507083520 | 57 | 300 | 0.0 | 0.0 | 0.00 | 0.00 | 0.00 | 89 | 1016.5 |
| 20260507083016 | 57 | 300 | 0.0 | 0.0 | 0.00 | 0.00 | 0.00 | 89 | 1016.7 |
| 20260507082517 | 57 | 300 | 0.0 | 0.0 | 0.00 | 0.00 | 0.00 | 88 | 1016.6 |
| 20260507082018 | 57 | 300 | 0.0 | 0.0 | 0.00 | 0.00 | 0.00 | 88 | 1016.7 |
| 20260507081514 | 57 | 300 | 0.0 | 0.0 | 0.00 | 0.00 | 0.00 | 89 | 1016.8 |
| 20260507081013 | 57 | 300 | 0.0 | 0.0 | 0.00 | 0.00 | 0.00 | 88 | 1016.8 |
| 20260507080513 | 57 | 300 | 0.0 | 0.0 | 0.00 | 0.00 | 0.00 | 88 | 1016.7 |
| 20260507075509 | 58 | 300 | 0.0 | 0.0 | 0.00 | 0.00 | 0.00 | 88 | 1016.6 |
| 20260507075009 | 58 | 300 | 0.0 | 0.0 | 0.00 | 0.00 | 0.00 | 87 | 1016.6 |
| 20260507074509 | 58 | 300 | 0.0 | 0.0 | 0.00 | 0.00 | 0.00 | 87 | 1016.7 |
| 20260507074010 | 58 | 300 | 0.0 | 0.0 | 0.00 | 0.00 | 0.00 | 87 | 1016.7 |
| 20260507073507 | 58 | 300 | 0.0 | 0.0 | 0.00 | 0.00 | 0.00 | 87 | 1016.5 |
| 20260507073006 | 58 | 300 | 0.0 | 0.0 | 0.00 | 0.00 | 0.00 | 86 | 1016.4 |
| 20260507072507 | 58 | 300 | 0.0 | 0.0 | 0.00 | 0.00 | 0.00 | 86 | 1016.6 |
| 20260507072001 | 58 | 300 | 0.0 | 0.0 | 0.00 | 0.00 | 0.00 | 86 | 1016.6 |
| 20260507071459 | 58 | 300 | 0.0 | 0.0 | 0.00 | 0.00 | 0.00 | 85 | 1016.6 |
| 20260507070958 | 58 | 300 | 0.0 | 0.0 | 0.00 | 0.00 | 0.00 | 85 | 1016.6 |
| 20260507070458 | 58 | 300 | 0.0 | 0.0 | 0.00 | 0.00 | 0.00 | 85 | 1016.8 |
| 20260507065455 | 59 | 300 | 0.0 | 0.0 | 0.00 | 0.00 | 0.00 | 85 | 1016.8 |
| 20260507064952 | 59 | 300 | 0.0 | 0.0 | 0.00 | 0.00 | 0.00 | 85 | 1016.7 |
| 20260507064454 | 59 | 300 | 0.0 | 0.0 | 0.00 | 0.00 | 0.00 | 84 | 1016.8 |
| 20260507063950 | 59 | 300 | 0.0 | 0.0 | 0.00 | 0.00 | 0.00 | 84 | 1016.8 |
| 20260507063451 | 59 | 300 | 0.0 | 0.0 | 0.00 | 0.00 | 0.00 | 84 | 1016.8 |
| 20260507062951 | 59 | 300 | 0.0 | 0.0 | 0.00 | 0.00 | 0.00 | 84 | 1016.8 |
| 20260507062452 | 59 | 300 | 0.0 | 0.0 | 0.00 | 0.00 | 0.00 | 84 | 1016.9 |
| 20260507061949 | 59 | 300 | 0.0 | 0.0 | 0.00 | 0.00 | 0.00 | 84 | 1016.8 |
| 20260507061447 | 59 | 300 | 0.0 | 0.0 | 0.00 | 0.00 | 0.00 | 83 | 1016.9 |
| 20260507060946 | 59 | 300 | 0.0 | 0.0 | 0.00 | 0.00 | 0.00 | 83 | 1016.9 |
| 20260507055944 | 59 | 300 | 0.0 | 0.0 | 0.00 | 0.00 | 0.00 | 83 | 1016.9 |
| 20260507055445 | 59 | 300 | 0.0 | 0.0 | 0.00 | 0.00 | 0.00 | 82 | 1017.0 |
| 20260507054939 | 59 | 300 | 0.0 | 0.0 | 0.00 | 0.00 | 0.00 | 82 | 1016.9 |
| 20260507054437 | 59 | 300 | 0.0 | 0.0 | 0.00 | 0.00 | 0.00 | 82 | 1016.9 |
| 20260507053934 | 59 | 300 | 0.0 | 0.0 | 0.00 | 0.00 | 0.00 | 82 | 1016.9 |
| 20260507053433 | 60 | 300 | 0.0 | 0.0 | 0.00 | 0.00 | 0.00 | 81 | 1016.9 |
| 20260507052933 | 60 | 300 | 0.0 | 0.0 | 0.00 | 0.00 | 0.00 | 81 | 1017.0 |
| 20260507052434 | 60 | 300 | 0.0 | 0.0 | 0.00 | 0.00 | 0.00 | 81 | 1017.0 |
| 20260507051932 | 60 | 300 | 0.0 | 0.0 | 0.00 | 0.00 | 0.00 | 81 | 1016.9 |
| 20260507050428 | 60 | 300 | 0.0 | 0.0 | 0.00 | 0.00 | 0.00 | 80 | 1016.9 |
| 20260507045928 | 60 | 300 | 0.0 | 0.0 | 0.00 | 0.00 | 0.00 | 80 | 1016.9 |
| 20260507045427 | 60 | 300 | 0.0 | 0.0 | 0.00 | 0.00 | 0.00 | 80 | 1017.0 |
| 20260507044925 | 60 | 300 | 0.0 | 0.0 | 0.00 | 0.00 | 0.00 | 80 | 1016.9 |
| 20260507044426 | 61 | 300 | 0.0 | 0.0 | 0.00 | 0.00 | 0.00 | 79 | 1016.9 |
| 20260507043926 | 61 | 300 | 0.0 | 0.0 | 0.00 | 0.00 | 0.00 | 79 | 1017.0 |
| 20260507043425 | 61 | 299 | 0.0 | 0.0 | 0.00 | 0.00 | 0.00 | 79 | 1016.9 |
| 20260507042925 | 61 | 299 | 0.0 | 0.0 | 0.00 | 0.00 | 0.00 | 79 | 1016.9 |
| 20260507042423 | 61 | 299 | 0.0 | 0.0 | 0.00 | 0.00 | 0.00 | 79 | 1017.0 |
| 20260507041921 | 61 | 299 | 0.0 | 0.0 | 0.00 | 0.00 | 0.00 | 78 | 1017.0 |
| 20260507041419 | 61 | 299 | 0.0 | 2.0 | 0.00 | 0.00 | 0.00 | 78 | 1016.9 |
| 20260507040917 | 61 | 299 | 0.0 | 3.0 | 0.00 | 0.00 | 0.00 | 77 | 1016.9 |
| 20260507035418 | 62 | 288 | 0.0 | 3.0 | 0.00 | 0.00 | 0.00 | 77 | 1016.8 |
| 20260507034918 | 62 | 288 | 0.0 | 2.0 | 0.00 | 0.00 | 0.00 | 76 | 1016.8 |
| 20260507034419 | 62 | 288 | 0.0 | 2.0 | 0.00 | 0.00 | 0.00 | 77 | 1016.7 |
| 20260507033918 | 62 | 288 | 0.0 | 3.0 | 0.00 | 0.00 | 0.00 | 77 | 1016.6 |
| 20260507033414 | 62 | 288 | 0.0 | 3.0 | 0.00 | 0.00 | 0.00 | 76 | 1016.6 |
| 20260507032914 | 62 | 286 | 1.0 | 4.0 | 0.00 | 0.00 | 0.00 | 76 | 1016.6 |
| 20260507031915 | 63 | 290 | 2.0 | 7.0 | 0.00 | 0.00 | 0.00 | 76 | 1016.6 |
| 20260507031415 | 63 | 302 | 2.0 | 6.0 | 0.00 | 0.00 | 0.00 | 76 | 1016.5 |
| 20260507030914 | 63 | 287 | 1.0 | 6.0 | 0.00 | 0.00 | 0.00 | 76 | 1016.4 |
| 20260507030413 | 63 | 288 | 1.0 | 4.0 | 0.00 | 0.00 | 0.00 | 75 | 1016.3 |
| 20260507025914 | 63 | 284 | 2.0 | 4.0 | 0.00 | 0.00 | 0.00 | 75 | 1016.2 |
| 20260507025415 | 64 | 274 | 2.0 | 4.0 | 0.00 | 0.00 | 0.00 | 74 | 1016.1 |
| 20260507024911 | 64 | 284 | 2.0 | 5.0 | 0.00 | 0.00 | 0.00 | 74 | 1016.1 |
| 20260507024411 | 64 | 289 | 1.0 | 6.0 | 0.00 | 0.00 | 0.00 | 73 | 1016.1 |
| 20260507023911 | 64 | 268 | 2.0 | 6.0 | 0.00 | 0.00 | 0.00 | 72 | 1016.0 |
| 20260507023410 | 65 | 266 | 2.0 | 4.0 | 0.00 | 0.00 | 0.00 | 71 | 1016.0 |